Regional Weather Roundup
Issued by NWS

Home | Current Version | Previous Version | Graphics & Text | Print | Product List | Glossary On
Versions: 1 2 3 4 5 6 7 8 9 10 11 12 13 14 15 16 17 18 19 20 21 22 23 24 25 26 27 28 29 30 31 32 33 34 35 36 37 38 39 40 41 42 43 44 45 46 47 48 49 50
000
ASUS45 KBOU 172007
RWRCO

WEATHER ROUNDUP FOR COLORADO
NATIONAL WEATHER SERVICE DENVER/BOULDER CO
200 PM MDT WED SEP 17 2014

NOTE: "FAIR" INDICATES FEW OR NO CLOUDS BELOW 12000 FEET WITH NO
SIGNIFICANT WEATHER AND/OR OBSTRUCTIONS TO VISIBILITY.

COZ001>005-013-030-031-172100-
...NORTHWEST COLORADO...

CITY           SKY/WX    TMP DP  RH WIND       PRES   REMARKS
CRAIG          SUNNY     83  36  18 NE8       30.13F
HAYDEN         SUNNY     81  27  13 NW5       30.15F
MEEKER         SUNNY     83  34  17 SW8       30.14F
MOUNT WERNER   NOT AVBL
STEAMBOAT SPGS SUNNY     78  29  17 SE6       30.18F
WALDEN         CLOUDY    70  28  21 NW5       30.27F
$$

COZ006>008-011-172100-
...WEST CENTRAL VALLEYS...

CITY           SKY/WX    TMP DP  RH WIND       PRES   REMARKS
GRAND JUNCTION SUNNY     81  40  23 SW5       30.04F
MONTROSE       SUNNY     83  45  26 NW8       30.10F
EAGLE          MOSUNNY   77  34  20 CALM      30.18F
RIFLE          SUNNY     81  42  25 CALM      30.08F
DELTA          SUNNY     86  40  19 W6        30.05F
NUCLA          SUNNY     81  41  24 W5        30.14F
$$

COZ017>023-064>068-172100-
...SOUTHWEST COLORADO...

CITY           SKY/WX    TMP DP  RH WIND       PRES   REMARKS
DURANGO        MOSUNNY   76  48  37 VRB5      30.17F
CORTEZ         SUNNY     80  52  37 SW9       30.14F
PAGOSA SPRINGS MOSUNNY   73  43  34 S6        30.25F
TELLURIDE      NOT AVBL
WOLF CREEK PAS CLOUDY    46  34  61 S12G18    30.54S
$$

COZ009-010-012-014-032>034-037-058>063-172100-
...CENTRAL COLORADO...

CITY           SKY/WX    TMP DP  RH WIND       PRES   REMARKS
ASPEN          MOSUNNY   76  29  17 VRB6      30.23F
BUENA VISTA    MOSUNNY   78  20  11 S3        30.23F
COPPER MTN     RAIN      54  28  37 W20G29    30.58F
BERTHOUD PASS  PTSUNNY   50  46  87 NE3       30.62F
COTTONWOOD PAS MOSUNNY   75  18  11 E3        30.39F
GUNNISON       SUNNY     75  30  19 SW5       30.24F
KREMMLING      SUNNY     77  28  16 SW3       30.23F
LEADVILLE      MOSUNNY   68  26  20 NW10      30.38F
MONARCH PASS   LGT RAIN  45  36  70 E21       30.65F
SALIDA         MOSUNNY   82  28  13 SW10G17   30.28F
SUNLIGHT       SUNNY     63  36  36 CALM      30.50F
WILKERSON PASS NOT AVBL
$$

COZ069>075-172100-
...SAN LUIS VALLEY/SANGRE DE CRISTO MOUNTAINS...

CITY           SKY/WX    TMP DP  RH WIND       PRES   REMARKS
ALAMOSA        PTSUNNY   73  45  36 VRB5      30.21F
LA VETA PASS   NOT AVBL
SAGUACHE       CLOUDY    70  37  30 W14G25    30.26S
$$

COZ035-036-038>040-172100-
...NORTHERN COLORADO FRONT RANGE...

CITY           SKY/WX    TMP DP  RH WIND       PRES   REMARKS
DENVER INTL AP MOSUNNY   87  32  14 N6        30.05F
DMNS CITY PARK   N/A     89  33  13 N8        30.03F
AURORA         MOSUNNY   85  34  15 N6        30.07F
FRONT RANGE AP PTSUNNY   86  36  16 CALM      30.07F
ERIE MUNI ARPT SUNNY     88  28  12 CALM      30.02F
BOULDER MUN AP SUNNY     88  36  15 CALM      30.03F
CENTENNIAL     MOSUNNY   85  32  15 VRB3      30.08F
BROOMFIELD     NOT AVBL
FORT COLLINS   SUNNY     88  41  19 SE6       30.01F
LONGMONT       SUNNY     91  36  14 CALM      30.03F
$$

COZ041-046-047-076>085-087-088-172100-
...PIKES PEAK/PALMER DIVIDE AND SOUTHERN FOOTHILLS...

CITY           SKY/WX    TMP DP  RH WIND       PRES   REMARKS
COLO. SPRINGS  PTSUNNY   82  33  17 NE13G21   30.13S
A. F. ACADEMY  SUNNY     82  35  18 VRB6      30.13F
ELLICOTT       NOT AVBL
FALCON         CLOUDY    72  40  30 SE14G23   30.18F THUNDER
FORT CARSON    PTSUNNY   85  38  18 VRB2      30.08F
LIMON          PTSUNNY   86  39  19 S16G24    30.05F
MONUMENT HILL  MOSUNNY   79  30  17 NE9       30.17F
TRINIDAD       PTSUNNY   84  39  20 SE7       30.08F
$$

COZ042>045-048>051-090-091-172100-
...NORTHEAST COLORADO...

CITY           SKY/WX    TMP DP  RH WIND       PRES   REMARKS
GREELEY ARPT   SUNNY     88  37  16 S7        30.01F
AKRON          SUNNY     88  44  21 NW17      30.00F
BURLINGTON     PTSUNNY   84  44  24 N16G24    29.97F
WRAY           SUNNY     91  45  20 SW6       29.94F
STERLING       SUNNY     91  52  25 E8        29.95F
HOLYOKE        SUNNY     88  46  23 CALM      29.95F
FORT MORGAN    SUNNY     90  36  15 S5        30.00F
$$

COZ086-089-092>099-172100-
...SOUTHEAST COLORADO...

CITY           SKY/WX    TMP DP  RH WIND       PRES   REMARKS
PUEBLO         MOSUNNY   90  41  18 VRB5      29.99F
LA JUNTA       PTSUNNY   91  41  17 S7        29.97F
LAMAR          MOSUNNY   93  41  16 VRB5      29.92F
SPRINGFIELD      N/A     86  46  24 S5        29.99F
$$


USA.gov is the U.S. government's official web portal to all federal, state and local government web resources and services.